Time,TemperatureF,DewpointF,PressureIn,WindDirection,WindDirectionDegrees,WindSpeedMPH,WindSpeedGustMPH,Humidity,HourlyPrecipIn,Conditions,Clouds,dailyrainin,SoftwareType,DateUTC
2013-05-15 00:00:00,78.9,57.6,29.64,WSW,256,16.0,24.0,48,0.00,,---,0.00,VWS V14.00,2013-05-15 05:00:00,
2013-05-15 00:01:00,79.0,56.5,29.64,WSW,243,12.0,28.0,46,0.00,,---,0.00,VWS V14.00,2013-05-15 05:01:00,
2013-05-15 00:06:00,79.0,56.5,29.64,WSW,240,18.0,28.0,46,0.00,,---,0.00,VWS V14.00,2013-05-15 05:06:00,
2013-05-15 00:11:00,79.0,56.5,29.64,WSW,242,13.0,28.0,46,0.00,,---,0.00,VWS V14.00,2013-05-15 05:11:00,
2013-05-15 00:16:00,78.9,56.4,29.64,West,263,23.0,28.0,46,0.00,,---,0.00,VWS V14.00,2013-05-15 05:16:00,
2013-05-15 00:21:00,78.9,56.4,29.64,West,265,20.0,28.0,46,0.00,,---,0.00,VWS V14.00,2013-05-15 05:21:00,
2013-05-15 00:26:00,78.8,56.9,29.63,West,264,22.0,28.0,47,0.00,,---,0.00,VWS V14.00,2013-05-15 05:26:00,
2013-05-15 00:30:00,78.8,56.9,29.63,West,276,10.0,23.0,47,0.00,,---,0.00,VWS V14.00,2013-05-15 05:30:00,
2013-05-15 00:31:00,78.7,56.8,29.63,WSW,252,14.0,28.0,47,0.00,,---,0.00,VWS V14.00,2013-05-15 05:31:00,
2013-05-15 00:36:00,78.7,56.8,29.63,WSW,252,11.0,28.0,47,0.00,,---,0.00,VWS V14.00,2013-05-15 05:36:00,
2013-05-15 00:41:00,78.6,57.3,29.63,West,269,20.0,34.0,48,0.00,,---,0.00,VWS V14.00,2013-05-15 05:41:00,
2013-05-15 00:46:00,78.5,57.2,29.63,West,266,20.0,27.0,48,0.00,,---,0.00,VWS V14.00,2013-05-15 05:46:00,
2013-05-15 00:51:00,78.4,57.7,29.63,WSW,248,18.0,27.0,49,0.00,,---,0.00,VWS V14.00,2013-05-15 05:51:00,
2013-05-15 00:56:00,78.2,57.5,29.64,WNW,288,10.0,28.0,49,0.00,,---,0.00,VWS V14.00,2013-05-15 05:56:00,
2013-05-15 01:00:00,79.0,56.5,29.64,WSW,255,16.0,28.0,46,0.00,,---,0.00,VWS V14.00,2013-05-15 06:00:00,
2013-05-15 01:01:00,78.2,57.5,29.64,WSW,250,13.0,28.0,49,0.00,,---,0.00,VWS V14.00,2013-05-15 06:01:00,
2013-05-15 01:06:00,78.1,58.0,29.64,West,259,18.0,28.0,50,0.00,,---,0.00,VWS V14.00,2013-05-15 06:06:00,
2013-05-15 01:11:00,78.0,57.9,29.64,WSW,256,11.0,28.0,50,0.00,,---,0.00,VWS V14.00,2013-05-15 06:11:00,
2013-05-15 01:16:00,77.9,57.8,29.64,WSW,245,12.0,25.0,50,0.00,,---,0.00,VWS V14.00,2013-05-15 06:16:00,
2013-05-15 01:21:00,77.8,58.2,29.64,WNW,290,14.0,26.0,51,0.00,,---,0.00,VWS V14.00,2013-05-15 06:21:00,
2013-05-15 01:26:00,77.6,58.1,29.64,WSW,248,24.0,26.0,51,0.00,,---,0.00,VWS V14.00,2013-05-15 06:26:00,
2013-05-15 01:30:00,78.6,57.3,29.63,West,259,18.0,34.0,48,0.00,,---,0.00,VWS V14.00,2013-05-15 06:30:00,
2013-05-15 01:31:00,77.5,58.5,29.64,WNW,292,14.0,26.0,52,0.00,,---,0.00,VWS V14.00,2013-05-15 06:31:00,
2013-05-15 01:36:00,77.4,58.4,29.64,West,259,12.0,26.0,52,0.00,,---,0.00,VWS V14.00,2013-05-15 06:36:00,
2013-05-15 01:41:00,77.2,58.8,29.65,West,268,16.0,27.0,53,0.00,,---,0.00,VWS V14.00,2013-05-15 06:41:00,
2013-05-15 01:46:00,77.0,58.6,29.65,SW,236,8.0,24.0,53,0.00,,---,0.00,VWS V14.00,2013-05-15 06:46:00,
2013-05-15 01:51:00,76.9,58.5,29.65,WSW,248,14.0,24.0,53,0.00,,---,0.00,VWS V14.00,2013-05-15 06:51:00,
2013-05-15 01:56:00,76.7,58.8,29.65,WSW,254,8.0,24.0,54,0.00,,---,0.00,VWS V14.00,2013-05-15 06:56:00,
2013-05-15 02:00:00,78.0,57.9,29.64,WSW,248,19.0,28.0,50,0.00,,---,0.00,VWS V14.00,2013-05-15 07:00:00,
2013-05-15 02:01:00,76.5,58.6,29.65,West,261,11.0,25.0,54,0.00,,---,0.00,VWS V14.00,2013-05-15 07:01:00,
2013-05-15 02:06:00,76.3,59.0,29.65,WSW,258,10.0,25.0,55,0.00,,---,0.00,VWS V14.00,2013-05-15 07:06:00,
2013-05-15 02:11:00,76.1,58.8,29.65,West,265,5.0,25.0,55,0.00,,---,0.00,VWS V14.00,2013-05-15 07:11:00,
2013-05-15 02:16:00,76.0,58.7,29.65,WSW,258,13.0,23.0,55,0.00,,---,0.00,VWS V14.00,2013-05-15 07:16:00,
2013-05-15 02:21:00,75.9,59.1,29.65,West,259,19.0,24.0,56,0.00,,---,0.00,VWS V14.00,2013-05-15 07:21:00,
2013-05-15 02:26:00,75.7,58.9,29.65,WSW,248,7.0,24.0,56,0.00,,---,0.00,VWS V14.00,2013-05-15 07:26:00,
2013-05-15 02:30:00,77.2,58.8,29.65,West,281,19.0,27.0,53,0.00,,---,0.00,VWS V14.00,2013-05-15 07:30:00,
2013-05-15 02:31:00,75.5,58.7,29.65,WSW,251,7.0,24.0,56,0.00,,---,0.00,VWS V14.00,2013-05-15 07:31:00,
2013-05-15 02:36:00,75.5,58.7,29.65,West,278,8.0,24.0,56,0.00,,---,0.00,VWS V14.00,2013-05-15 07:36:00,
2013-05-15 02:41:00,75.5,58.7,29.65,WSW,242,19.0,24.0,56,0.00,,---,0.00,VWS V14.00,2013-05-15 07:41:00,
2013-05-15 02:46:00,75.5,58.7,29.65,WSW,243,7.0,23.0,56,0.00,,---,0.00,VWS V14.00,2013-05-15 07:46:00,
2013-05-15 02:51:00,75.3,58.5,29.65,West,263,14.0,23.0,56,0.00,,---,0.00,VWS V14.00,2013-05-15 07:51:00,
2013-05-15 02:56:00,75.4,58.6,29.66,WSW,250,10.0,24.0,56,0.00,,---,0.00,VWS V14.00,2013-05-15 07:56:00,
2013-05-15 03:00:00,76.1,58.8,29.65,West,264,4.0,25.0,55,0.00,,---,0.00,VWS V14.00,2013-05-15 08:00:00,
2013-05-15 03:01:00,75.3,58.5,29.66,WSW,250,7.0,24.0,56,0.00,,---,0.00,VWS V14.00,2013-05-15 08:01:00,
2013-05-15 03:06:00,75.4,58.6,29.66,WNW,297,14.0,32.0,56,0.00,,---,0.00,VWS V14.00,2013-05-15 08:06:00,
2013-05-15 03:11:00,75.4,58.6,29.66,WSW,243,10.0,32.0,56,0.00,,---,0.00,VWS V14.00,2013-05-15 08:11:00,
2013-05-15 03:16:00,75.3,58.5,29.66,WSW,240,9.0,23.0,56,0.00,,---,0.00,VWS V14.00,2013-05-15 08:16:00,
2013-05-15 03:21:00,75.3,58.5,29.66,West,263,13.0,23.0,56,0.00,,---,0.00,VWS V14.00,2013-05-15 08:21:00,
2013-05-15 03:30:00,75.5,58.7,29.65,West,272,13.0,24.0,56,0.00,,---,0.00,VWS V14.00,2013-05-15 08:30:00,
2013-05-15 04:00:00,75.4,58.6,29.66,West,276,14.0,32.0,56,0.00,,---,0.00,VWS V14.00,2013-05-15 09:00:00,
2013-05-15 04:30:00,75.0,58.8,29.67,WSW,248,12.0,25.0,57,0.00,,---,0.00,VWS V14.00,2013-05-15 09:30:00,
2013-05-15 05:00:00,74.3,59.1,29.68,WSW,248,11.0,29.0,59,0.00,,---,0.00,VWS V14.00,2013-05-15 10:00:00,
2013-05-15 05:30:00,73.9,59.6,29.69,West,270,12.0,24.0,61,0.00,,---,0.00,VWS V14.00,2013-05-15 10:30:00,
2013-05-15 06:00:00,73.1,59.3,29.70,West,270,11.0,25.0,62,0.00,,---,0.00,VWS V14.00,2013-05-15 11:00:00,
2013-05-15 06:30:00,72.1,59.3,29.71,West,270,9.0,21.0,64,0.00,,---,0.00,VWS V14.00,2013-05-15 11:30:00,
2013-05-15 07:00:00,72.0,59.2,29.72,West,270,9.0,22.0,64,0.00,,---,0.00,VWS V14.00,2013-05-15 12:00:00,
2013-05-15 07:30:00,72.5,58.8,29.73,West,270,9.0,21.0,62,0.00,,---,0.00,VWS V14.00,2013-05-15 12:30:00,
2013-05-15 08:00:00,72.6,58.8,29.74,WNW,292,9.0,23.0,62,0.00,,---,0.00,VWS V14.00,2013-05-15 13:00:00,
2013-05-15 08:30:00,72.5,58.8,29.73,WNW,292,10.0,21.0,62,0.00,,---,0.00,VWS V14.00,2013-05-15 13:30:00,
2013-05-15 09:00:00,73.4,59.2,29.74,WNW,292,10.0,22.0,61,0.00,,---,0.00,VWS V14.00,2013-05-15 14:00:00,
2013-05-15 09:05:00,72.7,59.4,29.76,West,272,5.0,13.0,63,0.00,,---,0.00,VWS V14.00,2013-05-15 14:05:00,
2013-05-15 09:11:00,72.9,59.6,29.76,West,277,5.0,13.0,63,0.00,,---,0.00,VWS V14.00,2013-05-15 14:11:00,
2013-05-15 09:16:00,72.9,59.1,29.76,WNW,292,13.0,14.0,62,0.00,,---,0.00,VWS V14.00,2013-05-15 14:16:00,
2013-05-15 09:21:00,72.9,59.1,29.76,WNW,285,4.0,15.0,62,0.00,,---,0.00,VWS V14.00,2013-05-15 14:21:00,
2013-05-15 09:26:00,73.0,59.7,29.76,WNW,303,9.0,15.0,63,0.00,,---,0.00,VWS V14.00,2013-05-15 14:26:00,
2013-05-15 09:31:00,73.1,59.3,29.76,WNW,303,9.0,15.0,62,0.00,,---,0.00,VWS V14.00,2013-05-15 14:31:00,
2013-05-15 09:37:00,73.2,59.4,29.76,WNW,297,12.0,15.0,62,0.00,,---,0.00,VWS V14.00,2013-05-15 14:37:00,
2013-05-15 09:42:00,73.4,60.0,29.76,NW,307,12.0,12.0,63,0.00,,---,0.00,VWS V14.00,2013-05-15 14:42:00,
2013-05-15 09:48:00,73.7,59.9,29.76,WNW,282,12.0,14.0,62,0.00,,---,0.00,VWS V14.00,2013-05-15 14:48:00,
2013-05-15 09:53:00,73.8,60.0,29.76,WNW,296,6.0,16.0,62,0.00,,---,0.00,VWS V14.00,2013-05-15 14:53:00,
2013-05-15 09:58:00,74.0,59.7,29.76,WNW,302,7.0,16.0,61,0.00,,---,0.00,VWS V14.00,2013-05-15 14:58:00,
2013-05-15 10:00:00,72.8,59.5,29.76,West,276,3.0,13.0,63,0.00,,---,0.00,VWS V14.00,2013-05-15 15:00:00,
2013-05-15 10:03:00,74.0,59.7,29.76,WNW,288,8.0,16.0,61,0.00,,---,0.00,VWS V14.00,2013-05-15 15:03:00,
2013-05-15 10:08:00,74.0,58.8,29.76,West,279,11.0,16.0,59,0.00,,---,0.00,VWS V14.00,2013-05-15 15:08:00,
2013-05-15 10:14:00,74.4,60.1,29.77,West,272,5.0,11.0,61,0.00,,---,0.00,VWS V14.00,2013-05-15 15:14:00,
2013-05-15 10:19:00,74.6,59.3,29.77,WNW,291,8.0,14.0,59,0.00,,---,0.00,VWS V14.00,2013-05-15 15:19:00,
2013-05-15 10:24:00,75.1,59.8,29.77,NW,304,0.0,14.0,59,0.00,,---,0.00,VWS V14.00,2013-05-15 15:24:00,
2013-05-15 10:29:00,74.9,59.1,29.77,NW,306,1.0,18.0,58,0.00,,---,0.00,VWS V14.00,2013-05-15 15:29:00,
2013-05-15 10:30:00,73.4,60.0,29.76,NW,307,12.0,15.0,63,0.00,,---,0.00,VWS V14.00,2013-05-15 15:30:00,
2013-05-15 10:34:00,75.0,58.8,29.77,NW,309,8.0,18.0,57,0.00,,---,0.00,VWS V14.00,2013-05-15 15:34:00,
2013-05-15 10:39:00,75.1,58.8,29.77,WNW,291,9.0,18.0,57,0.00,,---,0.00,VWS V14.00,2013-05-15 15:39:00,
2013-05-15 10:44:00,75.0,58.8,29.78,NNW,334,11.0,15.0,57,0.00,,---,0.00,VWS V14.00,2013-05-15 15:44:00,
2013-05-15 10:49:00,75.2,58.9,29.78,North,352,14.0,15.0,57,0.00,,---,0.00,VWS V14.00,2013-05-15 15:49:00,
2013-05-15 10:54:00,75.0,59.7,29.78,NNW,343,14.0,15.0,59,0.00,,---,0.00,VWS V14.00,2013-05-15 15:54:00,
2013-05-15 10:59:00,74.3,58.6,29.78,NNW,341,12.0,16.0,58,0.00,,---,0.00,VWS V14.00,2013-05-15 15:59:00,
2013-05-15 11:00:00,74.2,59.4,29.77,West,269,4.0,16.0,60,0.00,,---,0.00,VWS V14.00,2013-05-15 16:00:00,
2013-05-15 11:05:00,73.7,59.4,29.78,NNW,347,10.0,16.0,61,0.00,,---,0.00,VWS V14.00,2013-05-15 16:05:00,
2013-05-15 11:10:00,73.3,59.5,29.78,NNW,330,8.0,16.0,62,0.00,,---,0.00,VWS V14.00,2013-05-15 16:10:00,
2013-05-15 11:15:00,73.2,59.9,29.78,NNW,348,8.0,13.0,63,0.00,,---,0.00,VWS V14.00,2013-05-15 16:15:00,
2013-05-15 11:20:00,73.0,58.3,29.78,NNW,342,7.0,13.0,60,0.00,,---,0.00,VWS V14.00,2013-05-15 16:20:00,
2013-05-15 11:25:00,72.7,54.6,29.78,North,4,8.0,13.0,53,0.00,,---,0.00,VWS V14.00,2013-05-15 16:25:00,
2013-05-15 11:30:00,75.1,58.8,29.78,NW,305,14.0,18.0,57,0.00,,---,0.00,VWS V14.00,2013-05-15 16:30:00,
2013-05-15 11:31:00,72.7,54.1,29.78,NNW,346,6.0,13.0,52,0.00,,---,0.00,VWS V14.00,2013-05-15 16:31:00,
2013-05-15 11:36:00,72.8,53.6,29.78,NNW,340,0.0,13.0,51,0.00,,---,0.00,VWS V14.00,2013-05-15 16:36:00,
2013-05-15 11:41:00,72.5,54.9,29.78,NNW,330,4.0,13.0,54,0.00,,---,0.00,VWS V14.00,2013-05-15 16:41:00,
2013-05-15 11:46:00,72.3,56.2,29.78,NNW,333,4.0,7.0,57,0.00,,---,0.00,VWS V14.00,2013-05-15 16:46:00,
2013-05-15 11:51:00,72.1,57.0,29.78,NW,305,0.0,7.0,59,0.00,,---,0.00,VWS V14.00,2013-05-15 16:51:00,
2013-05-15 11:56:00,72.0,57.4,29.78,NW,311,0.0,7.0,60,0.00,,---,0.00,VWS V14.00,2013-05-15 16:56:00,
2013-05-15 12:00:00,73.3,59.5,29.78,NNW,346,10.0,16.0,62,0.00,,---,0.00,VWS V14.00,2013-05-15 17:00:00,
2013-05-15 12:01:00,72.0,57.4,29.78,NW,311,0.0,7.0,60,0.00,,---,0.00,VWS V14.00,2013-05-15 17:01:00,
2013-05-15 12:06:00,72.0,57.8,29.78,West,269,0.0,7.0,61,0.00,,---,0.00,VWS V14.00,2013-05-15 17:06:00,
2013-05-15 12:12:00,71.9,57.7,29.77,West,269,0.0,1.0,61,0.00,,---,0.00,VWS V14.00,2013-05-15 17:12:00,
2013-05-15 12:17:00,71.9,57.7,29.77,West,269,0.0,1.0,61,0.00,,---,0.00,VWS V14.00,2013-05-15 17:17:00,
2013-05-15 12:22:00,71.9,59.5,29.77,West,269,0.0,1.0,65,0.00,,---,0.00,VWS V14.00,2013-05-15 17:22:00,
2013-05-15 12:27:00,71.7,58.9,29.78,West,269,0.0,1.0,64,0.00,,---,0.00,VWS V14.00,2013-05-15 17:27:00,
2013-05-15 12:30:00,72.4,54.8,29.78,NNW,330,0.0,13.0,54,0.00,,---,0.00,VWS V14.00,2013-05-15 17:30:00,
2013-05-15 12:33:00,71.4,59.9,29.78,West,269,0.0,1.0,67,0.00,,---,0.00,VWS V14.00,2013-05-15 17:33:00,
2013-05-15 12:38:00,70.6,60.0,29.78,West,269,0.0,1.0,69,0.00,,---,0.00,VWS V14.00,2013-05-15 17:38:00,
2013-05-15 12:43:00,70.2,59.6,29.78,West,269,0.0,1.0,69,0.00,,---,0.00,VWS V14.00,2013-05-15 17:43:00,
2013-05-15 12:48:00,70.1,59.9,29.78,West,269,0.0,1.0,70,0.00,,---,0.00,VWS V14.00,2013-05-15 17:48:00,
2013-05-15 12:53:00,70.3,60.1,29.78,West,269,0.0,1.0,70,0.00,,---,0.00,VWS V14.00,2013-05-15 17:53:00,
2013-05-15 12:59:00,70.5,59.4,29.77,West,269,0.0,1.0,68,0.00,,---,0.00,VWS V14.00,2013-05-15 17:59:00,
2013-05-15 13:00:00,71.9,57.3,29.77,West,269,4.0,7.0,60,0.00,,---,0.00,VWS V14.00,2013-05-15 18:00:00,
2013-05-15 13:04:00,70.8,59.7,29.77,West,269,0.0,1.0,68,0.00,,---,0.00,VWS V14.00,2013-05-15 18:04:00,
2013-05-15 13:09:00,71.3,59.8,29.77,West,269,0.0,1.0,67,0.00,,---,0.00,VWS V14.00,2013-05-15 18:09:00,
2013-05-15 13:14:00,71.6,60.1,29.77,West,270,0.0,5.0,67,0.00,,---,0.00,VWS V14.00,2013-05-15 18:14:00,
2013-05-15 13:19:00,71.9,59.5,29.77,West,269,0.0,5.0,65,0.00,,---,0.00,VWS V14.00,2013-05-15 18:19:00,
2013-05-15 13:24:00,72.2,58.9,29.77,West,270,0.0,5.0,63,0.00,,---,0.00,VWS V14.00,2013-05-15 18:24:00,
2013-05-15 13:29:00,72.6,59.3,29.78,West,270,0.0,5.0,63,0.00,,---,0.00,VWS V14.00,2013-05-15 18:29:00,
2013-05-15 13:30:00,70.3,59.2,29.78,West,270,0.0,1.0,68,0.00,,---,0.00,VWS V14.00,2013-05-15 18:30:00,
2013-05-15 13:35:00,73.5,59.7,29.78,West,270,0.0,5.0,62,0.00,,---,0.00,VWS V14.00,2013-05-15 18:35:00,
2013-05-15 13:40:00,74.3,60.0,29.78,West,271,0.0,5.0,61,0.00,,---,0.00,VWS V14.00,2013-05-15 18:40:00,
2013-05-15 13:45:00,74.6,59.3,29.77,West,280,0.0,7.0,59,0.00,,---,0.00,VWS V14.00,2013-05-15 18:45:00,
2013-05-15 13:51:00,74.8,60.0,29.77,NW,304,6.0,7.0,60,0.00,,---,0.00,VWS V14.00,2013-05-15 18:51:00,
2013-05-15 13:56:00,74.9,60.6,29.77,West,267,6.0,7.0,61,0.00,,---,0.00,VWS V14.00,2013-05-15 18:56:00,
2013-05-15 14:00:00,71.4,59.5,29.77,West,270,4.0,4.0,66,0.00,,---,0.00,VWS V14.00,2013-05-15 19:00:00,
2013-05-15 14:02:00,75.3,60.5,29.77,West,266,0.0,7.0,60,0.00,,---,0.00,VWS V14.00,2013-05-15 19:02:00,
2013-05-15 14:07:00,75.5,59.7,29.77,WSW,247,0.0,9.0,58,0.00,,---,0.00,VWS V14.00,2013-05-15 19:07:00,
2013-05-15 14:12:00,75.6,59.8,29.76,West,271,0.0,2.0,58,0.00,,---,0.00,VWS V14.00,2013-05-15 19:12:00,
2013-05-15 14:17:00,75.7,59.9,29.76,WNW,284,4.0,8.0,58,0.00,,---,0.00,VWS V14.00,2013-05-15 19:17:00,
2013-05-15 14:22:00,75.8,60.0,29.76,WNW,302,1.0,8.0,58,0.00,,---,0.00,VWS V14.00,2013-05-15 19:22:00,
2013-05-15 14:28:00,75.8,60.5,29.77,WNW,300,0.0,8.0,59,0.00,,---,0.00,VWS V14.00,2013-05-15 19:28:00,
2013-05-15 14:30:00,74.4,59.6,29.77,West,271,0.0,5.0,60,0.00,,---,0.00,VWS V14.00,2013-05-15 19:30:00,
2013-05-15 14:33:00,75.8,60.0,29.77,WNW,297,5.0,10.0,58,0.00,,---,0.00,VWS V14.00,2013-05-15 19:33:00,
2013-05-15 14:38:00,75.8,59.5,29.77,NW,311,0.0,10.0,57,0.00,,---,0.00,VWS V14.00,2013-05-15 19:38:00,
2013-05-15 14:43:00,76.2,59.9,29.77,NW,323,0.0,7.0,57,0.00,,---,0.00,VWS V14.00,2013-05-15 19:43:00,
2013-05-15 14:49:00,76.7,59.3,29.77,WNW,297,0.0,9.0,55,0.00,,---,0.00,VWS V14.00,2013-05-15 19:49:00,
2013-05-15 14:54:00,77.3,59.9,29.77,WNW,302,5.0,9.0,55,0.00,,---,0.00,VWS V14.00,2013-05-15 19:54:00,
2013-05-15 14:59:00,77.8,57.7,29.76,NW,323,0.0,9.0,50,0.00,,---,0.00,VWS V14.00,2013-05-15 19:59:00,
2013-05-15 15:00:00,75.6,59.8,29.76,West,265,0.0,9.0,58,0.00,,---,0.00,VWS V14.00,2013-05-15 20:00:00,
2013-05-15 15:05:00,78.5,55.4,29.76,WNW,299,0.0,9.0,45,0.00,,---,0.00,VWS V14.00,2013-05-15 20:05:00,
2013-05-15 15:10:00,79.1,54.7,29.76,WNW,303,0.0,9.0,43,0.00,,---,0.00,VWS V14.00,2013-05-15 20:10:00,
2013-05-15 15:15:00,79.3,52.9,29.75,WNW,295,0.0,6.0,40,0.00,,---,0.00,VWS V14.00,2013-05-15 20:15:00,
2013-05-15 15:20:00,79.7,53.3,29.75,WNW,295,0.0,6.0,40,0.00,,---,0.00,VWS V14.00,2013-05-15 20:20:00,
2013-05-15 15:25:00,79.8,54.0,29.75,NW,313,1.0,6.0,41,0.00,,---,0.00,VWS V14.00,2013-05-15 20:25:00,
2013-05-15 15:30:00,79.6,55.2,29.75,NW,312,0.0,6.0,43,0.00,,---,0.00,VWS V14.00,2013-05-15 20:30:00,
2013-05-15 15:35:00,80.0,55.5,29.75,NNW,328,0.0,6.0,43,0.00,,---,0.00,VWS V14.00,2013-05-15 20:35:00,
2013-05-15 15:41:00,79.6,55.2,29.75,NW,314,5.0,6.0,43,0.00,,---,0.00,VWS V14.00,2013-05-15 20:41:00,
2013-05-15 15:46:00,79.6,55.2,29.75,NW,314,0.0,2.0,43,0.00,,---,0.00,VWS V14.00,2013-05-15 20:46:00,
2013-05-15 15:51:00,80.1,57.5,29.75,WNW,302,5.0,7.0,46,0.00,,---,0.00,VWS V14.00,2013-05-15 20:51:00,
2013-05-15 15:56:00,79.6,55.8,29.75,NW,313,0.0,7.0,44,0.00,,---,0.00,VWS V14.00,2013-05-15 20:56:00,
2013-05-15 16:00:00,79.2,52.8,29.75,NNW,329,5.0,9.0,40,0.00,,---,0.00,VWS V14.00,2013-05-15 21:00:00,
2013-05-15 16:02:00,79.2,56.7,29.75,WNW,300,0.0,9.0,46,0.00,,---,0.00,VWS V14.00,2013-05-15 21:02:00,
2013-05-15 16:07:00,79.3,55.5,29.75,WNW,301,0.0,9.0,44,0.00,,---,0.00,VWS V14.00,2013-05-15 21:07:00,
2013-05-15 16:12:00,79.5,56.3,29.75,WNW,291,3.0,4.0,45,0.00,,---,0.00,VWS V14.00,2013-05-15 21:12:00,
2013-05-15 16:17:00,80.3,57.0,29.75,NW,310,0.0,5.0,45,0.00,,---,0.00,VWS V14.00,2013-05-15 21:17:00,
2013-05-15 16:22:00,80.7,56.2,29.75,NW,318,0.0,7.0,43,0.00,,---,0.00,VWS V14.00,2013-05-15 21:22:00,
2013-05-15 16:28:00,80.5,56.0,29.75,West,270,0.0,11.0,43,0.00,,---,0.00,VWS V14.00,2013-05-15 21:28:00,
2013-05-15 16:30:00,79.7,54.6,29.75,NW,314,1.0,6.0,42,0.00,,---,0.00,VWS V14.00,2013-05-15 21:30:00,
2013-05-15 16:33:00,80.8,55.6,29.75,WNW,293,5.0,11.0,42,0.00,,---,0.00,VWS V14.00,2013-05-15 21:33:00,
2013-05-15 16:38:00,80.9,55.7,29.75,WNW,289,3.0,11.0,42,0.00,,---,0.00,VWS V14.00,2013-05-15 21:38:00,
2013-05-15 16:43:00,81.3,54.7,29.75,NW,326,6.0,6.0,40,0.00,,---,0.00,VWS V14.00,2013-05-15 21:43:00,
2013-05-15 16:49:00,81.3,53.3,29.75,WNW,283,0.0,6.0,38,0.00,,---,0.00,VWS V14.00,2013-05-15 21:49:00,
2013-05-15 16:54:00,81.2,54.6,29.75,WNW,298,0.0,6.0,40,0.00,,---,0.00,VWS V14.00,2013-05-15 21:54:00,
2013-05-15 16:59:00,81.6,53.6,29.74,West,275,2.0,6.0,38,0.00,,---,0.00,VWS V14.00,2013-05-15 21:59:00,
2013-05-15 17:00:00,79.5,56.3,29.75,WNW,289,0.0,9.0,45,0.00,,---,0.00,VWS V14.00,2013-05-15 22:00:00,
2013-05-15 17:04:00,81.5,54.2,29.74,WNW,297,0.0,7.0,39,0.00,,---,0.00,VWS V14.00,2013-05-15 22:04:00,
2013-05-15 17:09:00,81.9,52.3,29.74,NNW,343,4.0,7.0,36,0.00,,---,0.00,VWS V14.00,2013-05-15 22:09:00,
2013-05-15 17:14:00,81.6,52.8,29.73,NW,320,0.0,1.0,37,0.00,,---,0.00,VWS V14.00,2013-05-15 22:14:00,
2013-05-15 17:19:00,82.0,53.9,29.73,WNW,298,0.0,8.0,38,0.00,,---,0.00,VWS V14.00,2013-05-15 22:19:00,
2013-05-15 17:25:00,81.2,52.5,29.73,WSW,251,0.0,8.0,37,0.00,,---,0.00,VWS V14.00,2013-05-15 22:25:00,
2013-05-15 17:30:00,81.4,53.4,29.72,WSW,251,0.0,8.0,38,0.00,,---,0.00,VWS V14.00,2013-05-15 22:30:00,
2013-05-15 17:35:00,81.9,53.1,29.72,West,271,0.0,8.0,37,0.00,,---,0.00,VWS V14.00,2013-05-15 22:35:00,
2013-05-15 17:40:00,81.7,53.7,29.72,WSW,248,0.0,8.0,38,0.00,,---,0.00,VWS V14.00,2013-05-15 22:40:00,
2013-05-15 17:45:00,81.5,53.5,29.72,WSW,237,0.0,6.0,38,0.00,,---,0.00,VWS V14.00,2013-05-15 22:45:00,
2013-05-15 17:50:00,81.6,53.6,29.72,West,273,0.0,6.0,38,0.00,,---,0.00,VWS V14.00,2013-05-15 22:50:00,
2013-05-15 17:55:00,81.6,52.8,29.73,West,274,0.0,6.0,37,0.00,,---,0.00,VWS V14.00,2013-05-15 22:55:00,
2013-05-15 18:00:00,81.7,52.9,29.73,NW,320,0.0,7.0,37,0.00,,---,0.00,VWS V14.00,2013-05-15 23:00:00,
2013-05-15 18:01:00,81.6,52.8,29.73,WNW,290,0.0,6.0,37,0.00,,---,0.00,VWS V14.00,2013-05-15 23:01:00,
2013-05-15 18:06:00,81.6,54.3,29.73,NW,306,5.0,7.0,39,0.00,,---,0.00,VWS V14.00,2013-05-15 23:06:00,
2013-05-15 18:11:00,81.5,52.7,29.74,NW,306,0.0,7.0,37,0.00,,---,0.00,VWS V14.00,2013-05-15 23:11:00,
2013-05-15 18:16:00,81.4,53.4,29.74,NW,306,0.0,0.0,38,0.00,,---,0.00,VWS V14.00,2013-05-15 23:16:00,
2013-05-15 18:21:00,81.1,53.1,29.74,NW,309,0.0,6.0,38,0.00,,---,0.00,VWS V14.00,2013-05-15 23:21:00,
2013-05-15 18:26:00,80.7,53.5,29.73,NW,309,0.0,6.0,39,0.00,,---,0.00,VWS V14.00,2013-05-15 23:26:00,
2013-05-15 18:30:00,81.6,52.1,29.72,WSW,249,2.0,8.0,36,0.00,,---,0.00,VWS V14.00,2013-05-15 23:30:00,
2013-05-15 18:31:00,80.5,53.3,29.73,NW,309,0.0,6.0,39,0.00,,---,0.00,VWS V14.00,2013-05-15 23:31:00,
2013-05-15 18:37:00,80.3,53.8,29.73,NW,309,0.0,6.0,40,0.00,,---,0.00,VWS V14.00,2013-05-15 23:37:00,
2013-05-15 18:42:00,80.1,53.6,29.74,NW,309,0.0,0.0,40,0.00,,---,0.00,VWS V14.00,2013-05-15 23:42:00,
2013-05-15 18:47:00,79.9,54.1,29.74,NW,309,0.0,1.0,41,0.00,,---,0.00,VWS V14.00,2013-05-15 23:47:00,
2013-05-15 18:53:00,79.7,54.6,29.74,NW,309,0.0,1.0,42,0.00,,---,0.00,VWS V14.00,2013-05-15 23:53:00,
2013-05-15 18:59:00,79.5,54.4,29.73,NW,309,0.0,1.0,42,0.00,,---,0.00,VWS V14.00,2013-05-15 23:59:00,
2013-05-15 19:00:00,81.5,52.7,29.74,NW,306,0.0,7.0,37,0.00,,---,0.00,VWS V14.00,2013-05-16 00:00:00,
2013-05-15 19:05:00,79.4,54.3,29.73,NW,309,0.0,1.0,42,0.00,,---,0.00,VWS V14.00,2013-05-16 00:05:00,
2013-05-15 19:11:00,79.4,54.3,29.73,NW,309,0.0,1.0,42,0.00,,---,0.00,VWS V14.00,2013-05-16 00:11:00,
2013-05-15 19:16:00,79.3,54.2,29.73,NW,309,0.0,0.0,42,0.00,,---,0.00,VWS V14.00,2013-05-16 00:16:00,
2013-05-15 19:21:00,79.3,54.2,29.73,NW,309,0.0,0.0,42,0.00,,---,0.00,VWS V14.00,2013-05-16 00:21:00,
2013-05-15 19:27:00,79.1,54.1,29.73,NW,309,0.0,0.0,42,0.00,,---,0.00,VWS V14.00,2013-05-16 00:27:00,
2013-05-15 19:30:00,80.2,53.7,29.74,NW,309,0.0,6.0,40,0.00,,---,0.00,VWS V14.00,2013-05-16 00:30:00,
2013-05-15 19:32:00,79.0,54.0,29.73,NW,309,0.0,0.0,42,0.00,,---,0.00,VWS V14.00,2013-05-16 00:32:00,
2013-05-15 19:37:00,79.0,55.9,29.73,NW,309,0.0,0.0,45,0.00,,---,0.00,VWS V14.00,2013-05-16 00:37:00,
2013-05-15 19:42:00,79.0,55.9,29.72,NW,309,0.0,0.0,45,0.00,,---,0.00,VWS V14.00,2013-05-16 00:42:00,
2013-05-15 19:47:00,78.8,55.7,29.72,NW,309,0.0,0.0,45,0.00,,---,0.00,VWS V14.00,2013-05-16 00:47:00,
2013-05-15 19:52:00,78.7,55.6,29.72,NW,309,0.0,0.0,45,0.00,,---,0.00,VWS V14.00,2013-05-16 00:52:00,
2013-05-15 19:57:00,78.5,55.4,29.73,NW,309,0.0,0.0,45,0.00,,---,0.00,VWS V14.00,2013-05-16 00:57:00,
2013-05-15 20:00:00,79.4,54.3,29.73,NW,309,0.0,1.0,42,0.00,,---,0.00,VWS V14.00,2013-05-16 01:00:00,
2013-05-15 20:02:00,78.3,55.2,29.73,NW,309,0.0,0.0,45,0.00,,---,0.00,VWS V14.00,2013-05-16 01:02:00,
2013-05-15 20:07:00,78.1,55.7,29.73,NW,309,0.0,0.0,46,0.00,,---,0.00,VWS V14.00,2013-05-16 01:07:00,
2013-05-15 20:12:00,77.7,55.3,29.74,NW,309,0.0,0.0,46,0.00,,---,0.00,VWS V14.00,2013-05-16 01:12:00,
2013-05-15 20:18:00,77.4,55.6,29.74,NW,309,0.0,1.0,47,0.00,,---,0.00,VWS V14.00,2013-05-16 01:18:00,
2013-05-15 20:23:00,77.1,55.3,29.74,NW,309,0.0,1.0,47,0.00,,---,0.00,VWS V14.00,2013-05-16 01:23:00,
2013-05-15 20:28:00,76.9,55.2,29.74,NW,309,0.0,1.0,47,0.00,,---,0.00,VWS V14.00,2013-05-16 01:28:00,
2013-05-15 20:30:00,79.0,55.9,29.72,NW,309,0.0,0.0,45,0.00,,---,0.00,VWS V14.00,2013-05-16 01:30:00,
2013-05-15 20:33:00,76.6,55.5,29.74,NW,309,0.0,1.0,48,0.00,,---,0.00,VWS V14.00,2013-05-16 01:33:00,
2013-05-15 20:38:00,76.2,55.1,29.74,NW,309,0.0,1.0,48,0.00,,---,0.00,VWS V14.00,2013-05-16 01:38:00,
2013-05-15 20:43:00,75.7,55.2,29.74,NW,309,0.0,0.0,49,0.00,,---,0.00,VWS V14.00,2013-05-16 01:43:00,
2013-05-15 20:48:00,75.2,54.8,29.74,NW,309,0.0,1.0,49,0.00,,---,0.00,VWS V14.00,2013-05-16 01:48:00,
2013-05-15 20:53:00,74.9,54.5,29.74,NW,309,0.0,1.0,49,0.00,,---,0.00,VWS V14.00,2013-05-16 01:53:00,
2013-05-15 20:58:00,74.7,53.7,29.75,NW,309,0.0,1.0,48,0.00,,---,0.00,VWS V14.00,2013-05-16 01:58:00,
2013-05-15 21:00:00,77.8,55.4,29.74,NW,309,0.0,0.0,46,0.00,,---,0.00,VWS V14.00,2013-05-16 02:00:00,
2013-05-15 21:03:00,74.5,53.0,29.75,NW,309,0.0,1.0,47,0.00,,---,0.00,VWS V14.00,2013-05-16 02:03:00,
2013-05-15 21:09:00,74.2,54.4,29.75,NW,309,0.0,1.0,50,0.00,,---,0.00,VWS V14.00,2013-05-16 02:09:00,
2013-05-15 21:14:00,73.9,53.6,29.75,NW,309,0.0,0.0,49,0.00,,---,0.00,VWS V14.00,2013-05-16 02:14:00,
2013-05-15 21:19:00,73.6,52.2,29.75,NW,309,0.0,0.0,47,0.00,,---,0.00,VWS V14.00,2013-05-16 02:19:00,
2013-05-15 21:24:00,73.3,51.9,29.75,NW,309,0.0,0.0,47,0.00,,---,0.00,VWS V14.00,2013-05-16 02:24:00,
2013-05-15 21:29:00,73.1,51.7,29.75,NW,309,0.0,0.0,47,0.00,,---,0.00,VWS V14.00,2013-05-16 02:29:00,
2013-05-15 21:30:00,75.8,54.7,29.74,NW,309,0.0,1.0,48,0.00,,---,0.00,VWS V14.00,2013-05-16 02:30:00,
2013-05-15 21:34:00,72.8,51.4,29.75,NW,309,0.0,0.0,47,0.00,,---,0.00,VWS V14.00,2013-05-16 02:34:00,
2013-05-15 21:39:00,72.4,51.0,29.75,NW,309,0.0,0.0,47,0.00,,---,0.00,VWS V14.00,2013-05-16 02:39:00,
2013-05-15 21:44:00,71.9,51.2,29.75,NW,309,0.0,0.0,48,0.00,,---,0.00,VWS V14.00,2013-05-16 02:44:00,
2013-05-15 21:49:00,71.6,51.5,29.75,NW,309,0.0,0.0,49,0.00,,---,0.00,VWS V14.00,2013-05-16 02:49:00,
2013-05-15 21:55:00,71.4,51.3,29.75,NW,309,0.0,0.0,49,0.00,,---,0.00,VWS V14.00,2013-05-16 02:55:00,
2013-05-15 22:00:00,71.3,51.2,29.76,NW,309,0.0,0.0,49,0.00,,---,0.00,VWS V14.00,2013-05-16 03:00:00,
2013-05-15 22:05:00,71.1,51.0,29.76,NW,309,0.0,0.0,49,0.00,,---,0.00,VWS V14.00,2013-05-16 03:05:00,
2013-05-15 22:10:00,70.8,50.7,29.76,NW,309,0.0,0.0,49,0.00,,---,0.00,VWS V14.00,2013-05-16 03:10:00,
2013-05-15 22:15:00,70.6,50.5,29.76,NW,309,0.0,0.0,49,0.00,,---,0.00,VWS V14.00,2013-05-16 03:15:00,
2013-05-15 22:20:00,70.3,49.7,29.76,NW,309,0.0,0.0,48,0.00,,---,0.00,VWS V14.00,2013-05-16 03:20:00,
2013-05-15 22:25:00,70.0,50.0,29.76,NW,309,0.0,0.0,49,0.00,,---,0.00,VWS V14.00,2013-05-16 03:25:00,
2013-05-15 22:30:00,69.9,49.3,29.76,NW,309,0.0,0.0,48,0.00,,---,0.00,VWS V14.00,2013-05-16 03:30:00,
2013-05-15 22:36:00,69.8,48.7,29.76,NW,309,0.0,0.0,47,0.00,,---,0.00,VWS V14.00,2013-05-16 03:36:00,
2013-05-15 22:41:00,69.7,49.2,29.75,NW,309,0.0,0.0,48,0.00,,---,0.00,VWS V14.00,2013-05-16 03:41:00,
2013-05-15 22:46:00,69.5,48.4,29.75,NW,309,0.0,1.0,47,0.00,,---,0.00,VWS V14.00,2013-05-16 03:46:00,
2013-05-15 22:51:00,69.5,48.4,29.75,NW,309,0.0,1.0,47,0.00,,---,0.00,VWS V14.00,2013-05-16 03:51:00,
2013-05-15 22:56:00,69.7,49.2,29.75,NW,310,0.0,2.0,48,0.00,,---,0.00,VWS V14.00,2013-05-16 03:56:00,
2013-05-15 23:00:00,70.8,50.7,29.76,NW,309,0.0,0.0,49,0.00,,---,0.00,VWS V14.00,2013-05-16 04:00:00,
2013-05-15 23:01:00,69.7,48.0,29.75,NW,310,0.0,2.0,46,0.00,,---,0.00,VWS V14.00,2013-05-16 04:01:00,
2013-05-15 23:06:00,69.9,48.2,29.75,North,2,0.0,7.0,46,0.00,,---,0.00,VWS V14.00,2013-05-16 04:06:00,
2013-05-15 23:11:00,70.2,47.9,29.75,North,1,0.0,7.0,45,0.00,,---,0.00,VWS V14.00,2013-05-16 04:11:00,
2013-05-15 23:16:00,70.4,48.1,29.75,North,1,0.0,5.0,45,0.00,,---,0.00,VWS V14.00,2013-05-16 04:16:00,
2013-05-15 23:21:00,70.5,48.2,29.75,North,1,0.0,5.0,45,0.00,,---,0.00,VWS V14.00,2013-05-16 04:21:00,
2013-05-15 23:26:00,70.6,48.8,29.76,North,6,0.0,7.0,46,0.00,,---,0.00,VWS V14.00,2013-05-16 04:26:00,
2013-05-15 23:30:00,69.6,49.1,29.75,NW,309,1.0,1.0,48,0.00,,---,0.00,VWS V14.00,2013-05-16 04:30:00,
2013-05-15 23:31:00,70.6,48.8,29.76,North,9,0.0,7.0,46,0.00,,---,0.00,VWS V14.00,2013-05-16 04:31:00,
2013-05-15 23:36:00,70.5,49.3,29.76,North,4,0.0,7.0,47,0.00,,---,0.00,VWS V14.00,2013-05-16 04:36:00,
2013-05-15 23:41:00,70.3,49.1,29.75,NNE,15,3.0,9.0,47,0.00,,---,0.00,VWS V14.00,2013-05-16 04:41:00,
2013-05-15 23:46:00,70.2,49.0,29.75,NE,39,0.0,2.0,47,0.00,,---,0.00,VWS V14.00,2013-05-16 04:46:00,
2013-05-15 23:51:00,70.1,48.4,29.75,NNE,18,0.0,5.0,46,0.00,,---,0.00,VWS V14.00,2013-05-16 04:51:00,
2013-05-15 23:56:00,70.1,48.4,29.76,NE,36,0.0,5.0,46,0.00,,---,0.00,VWS V14.00,2013-05-16 04:56:00,